Location: Pian di Sc�
(43.6333°N, 11.5500°E)
Time: 18:12:37
(UTC+00:00)

USA 267 - Pass Details

Date: 07 August 2020
Orbit: 1102 x 1106 km, 123.0° (Epoch: 17 September)

Event Time Altitude Azimuth Distance (km) Brightness Sun altitude
Rises 02:10:55 0° 122° (ESE) 3,909 6.3 -18.4°
Reaches altitude 10° 02:13:23 10° 121° (ESE) 2,954 5.7 -18.1°
Maximum altitude 02:19:54 77° 37° (NE) 1,131 3.4 -17.3°
Drops below altitude 10° 02:26:26 10° 312° (NW) 2,966 5.5 -16.4°
Sets 02:28:56 0° 312° (NW) 3,927 6.1 -16.1°
